When you browse on this site, cookies collect data to enhance your experience and personalize the content and advertising you see.
Visit our Privacy Policy to learn more. By continuing to use the site, you agree to this use of cookies and data.
  • In Latvia
  • List of Countries
  • For 7 days
  • Water Temperature
  • Satellite Maps
  • Weather Map
  • Weather Widgets
  • user-avatar
    Login

    Hourly Weather Wien

    Today, 24 May, Friday

    Time Temperature Precipitation Wind Pressure Humidity
    00:00 +13°C° 0 mm 2 mps 744 mmHg 72%
    01:00 +12°C° 0 mm 2 mps 743 mmHg 76%
    02:00 +10°C° 0 mm 2 mps 743 mmHg 78%
    03:00 +9°C° 0 mm 2 mps 743 mmHg 80%
    04:00 +9°C° 0 mm 2 mps 743 mmHg 82%
    05:00 +10°C° 0 mm 2 mps 743 mmHg 78%
    06:00 +13°C° 0 mm 2 mps 743 mmHg 73%
    07:00 +13°C° 0 mm 3 mps 742 mmHg 69%
    08:00 +14°C° 0 mm 3 mps 742 mmHg 63%
    09:00 +17°C° 0 mm 3 mps 742 mmHg 57%
    10:00 +19°C° 0 mm 3 mps 742 mmHg 52%
    11:00 +19°C° 0 mm 3 mps 742 mmHg 49%
    12:00 +20°C° 0 mm 3 mps 742 mmHg 47%
    13:00 +21°C° 0 mm 3 mps 741 mmHg 45%
    14:00 +21°C° 0 mm 3 mps 741 mmHg 45%
    15:00 +21°C° 0 mm 3 mps 741 mmHg 46%
    16:00 +21°C° 0 mm 3 mps 741 mmHg 47%
    17:00 +20°C° 0 mm 3 mps 740 mmHg 51%
    18:00 +19°C° 0 mm 2 mps 740 mmHg 56%
    19:00 +19°C° 0 mm 1 mps 740 mmHg 60%
    20:00 +16°C° 0 mm 1 mps 740 mmHg 63%
    21:00 +15°C° 0 mm 1 mps 741 mmHg 65%
    22:00 +14°C° 0 mm 1 mps 741 mmHg 68%
    23:00 +14°C° 0 mm 1 mps 741 mmHg 70%

    Tomorrow, 25 May, Saturday

    Time Temperature Precipitation Wind Pressure Humidity
    00:00 +13°C° 0 mm 1 mps 741 mmHg 73%
    01:00 +12°C° 0 mm 1 mps 741 mmHg 75%
    02:00 +12°C° 0 mm 1 mps 741 mmHg 77%
    03:00 +12°C° 0 mm 1 mps 741 mmHg 78%
    04:00 +11°C° 0 mm 1 mps 741 mmHg 79%
    05:00 +13°C° 0 mm 1 mps 741 mmHg 75%
    06:00 +15°C° 0 mm 1 mps 741 mmHg 72%
    07:00 +16°C° 0 mm 1 mps 741 mmHg 68%
    08:00 +19°C° 0 mm 1 mps 741 mmHg 62%
    09:00 +21°C° 0 mm 1 mps 741 mmHg 56%
    10:00 +23°C° 0 mm 1 mps 741 mmHg 50%
    11:00 +24°C° 0 mm 1 mps 741 mmHg 47%
    12:00 +25°C° 0 mm 1 mps 741 mmHg 44%
    13:00 +26°C° 0 mm 1 mps 741 mmHg 41%
    14:00 +26°C° 0 mm 1 mps 741 mmHg 41%
    15:00 +26°C° 0 mm 1 mps 740 mmHg 41%
    16:00 +26°C° 0 mm 1 mps 740 mmHg 42%
    17:00 +24°C° 0 mm 1 mps 740 mmHg 47%
    18:00 +23°C° 0 mm 1 mps 740 mmHg 52%
    19:00 +21°C° 0 mm 1 mps 740 mmHg 58%
    20:00 +20°C° 0.1 mm 1 mps 740 mmHg 61%
    21:00 +19°C° 0.1 mm 1 mps 741 mmHg 65%
    22:00 +18°C° 0.1 mm 1 mps 741 mmHg 69%
    23:00 +18°C° 0.4 mm 1 mps 741 mmHg 73%

    Day after tomorrow, 26 May, Sunday

    Time Temperature Precipitation Wind Pressure Humidity
    00:00 +16°C° 0.4 mm 1 mps 741 mmHg 76%
    01:00 +15°C° 0.4 mm 0 mps 741 mmHg 80%
    02:00 +14°C° 0.3 mm 0 mps 741 mmHg 82%
    03:00 +14°C° 0.3 mm 0 mps 741 mmHg 84%
    04:00 +13°C° 0.3 mm 0 mps 741 mmHg 86%
    05:00 +15°C° 0 mm 1 mps 741 mmHg 84%
    06:00 +16°C° 0 mm 1 mps 741 mmHg 81%
    07:00 +17°C° 0 mm 2 mps 741 mmHg 79%
    08:00 +19°C° 0 mm 2 mps 742 mmHg 74%
    09:00 +20°C° 0 mm 2 mps 742 mmHg 69%
    10:00 +23°C° 0 mm 2 mps 742 mmHg 63%
    11:00 +23°C° 0.3 mm 2 mps 742 mmHg 62%
    12:00 +24°C° 0.3 mm 3 mps 741 mmHg 61%
    13:00 +24°C° 0.3 mm 3 mps 741 mmHg 60%
    14:00 +25°C° 0.1 mm 3 mps 741 mmHg 58%
    15:00 +25°C° 0.1 mm 2 mps 741 mmHg 56%
    16:00 +25°C° 0.1 mm 2 mps 740 mmHg 54%
    17:00 +24°C° 0.1 mm 1 mps 740 mmHg 58%
    18:00 +23°C° 0.1 mm 1 mps 740 mmHg 62%
    19:00 +22°C° 0.1 mm 1 mps 740 mmHg 66%
    20:00 +21°C° 0.2 mm 1 mps 740 mmHg 71%
    21:00 +20°C° 0.2 mm 1 mps 741 mmHg 75%
    22:00 +19°C° 0.2 mm 1 mps 741 mmHg 79%
    23:00 +18°C° 0.1 mm 1 mps 741 mmHg 81%

    27 May, Monday

    Time Temperature Precipitation Wind Pressure Humidity
    00:00 +16°C° 0.1 mm 0 mps 741 mmHg 82%
    01:00 +15°C° 0.1 mm 0 mps 740 mmHg 84%
    02:00 +15°C° 0 mm 0 mps 740 mmHg 85%
    03:00 +15°C° 0 mm 0 mps 740 mmHg 85%
    04:00 +15°C° 0 mm 0 mps 740 mmHg 86%
    05:00 +15°C° 0 mm 0 mps 740 mmHg 84%
    06:00 +16°C° 0 mm 0 mps 740 mmHg 81%
    07:00 +17°C° 0 mm 0 mps 740 mmHg 79%
    08:00 +19°C° 0 mm 0 mps 740 mmHg 74%
    09:00 +20°C° 0 mm 0 mps 740 mmHg 69%
    10:00 +22°C° 0 mm 0 mps 741 mmHg 65%
    11:00 +24°C° 0.1 mm 1 mps 740 mmHg 63%
    12:00 +24°C° 0.1 mm 1 mps 740 mmHg 61%
    13:00 +24°C° 0.1 mm 1 mps 740 mmHg 60%
    14:00 +25°C° 0 mm 2 mps 739 mmHg 59%
    15:00 +25°C° 0 mm 2 mps 739 mmHg 59%
    16:00 +25°C° 0 mm 2 mps 738 mmHg 58%
    17:00 +24°C° 0.1 mm 2 mps 738 mmHg 64%
    18:00 +23°C° 0.1 mm 2 mps 738 mmHg 69%
    19:00 +21°C° 0.1 mm 2 mps 738 mmHg 75%
    20:00 +20°C° 0.5 mm 2 mps 738 mmHg 79%
    21:00 +20°C° 0.5 mm 1 mps 738 mmHg 84%
    22:00 +19°C° 0.5 mm 1 mps 737 mmHg 89%
    23:00 +19°C° 2.2 mm 1 mps 737 mmHg 90%

    28 May, Tuesday

    Time Temperature Precipitation Wind Pressure Humidity
    00:00 +19°C° 2.2 mm 1 mps 737 mmHg 91%
    01:00 +19°C° 2.2 mm 1 mps 736 mmHg 92%
    02:00 +18°C° 1.2 mm 1 mps 736 mmHg 93%
    03:00 +18°C° 1.2 mm 1 mps 735 mmHg 93%
    04:00 +16°C° 1.2 mm 1 mps 735 mmHg 94%
    05:00 +17°C° 0 mm 2 mps 735 mmHg 91%
    06:00 +18°C° 0 mm 3 mps 735 mmHg 88%
    07:00 +18°C° 0 mm 4 mps 734 mmHg 86%
    08:00 +20°C° 0 mm 4 mps 734 mmHg 77%
    09:00 +22°C° 0 mm 4 mps 734 mmHg 68%
    10:00 +23°C° 0 mm 5 mps 733 mmHg 60%
    11:00 +25°C° 0.1 mm 5 mps 733 mmHg 58%
    12:00 +25°C° 0.1 mm 5 mps 733 mmHg 56%
    13:00 +26°C° 0.1 mm 6 mps 732 mmHg 55%
    14:00 +25°C° 1.4 mm 5 mps 732 mmHg 60%
    15:00 +23°C° 1.4 mm 4 mps 732 mmHg 66%
    16:00 +22°C° 1.4 mm 4 mps 732 mmHg 71%
    17:00 +21°C° 1.4 mm 4 mps 732 mmHg 75%
    18:00 +19°C° 1.4 mm 4 mps 732 mmHg 79%
    19:00 +18°C° 1.4 mm 4 mps 732 mmHg 83%
    20:00 +17°C° 0.1 mm 4 mps 733 mmHg 84%
    21:00 +17°C° 0.1 mm 4 mps 733 mmHg 85%
    22:00 +15°C° 0.1 mm 4 mps 734 mmHg 85%
    23:00 +15°C° 0 mm 4 mps 734 mmHg 85%

    29 May, Wednesday

    Time Temperature Precipitation Wind Pressure Humidity
    00:00 +14°C° 0 mm 4 mps 734 mmHg 85%
    01:00 +14°C° 0 mm 4 mps 735 mmHg 85%
    02:00 +14°C° 0 mm 4 mps 735 mmHg 84%
    03:00 +14°C° 0 mm 3 mps 735 mmHg 83%
    04:00 +14°C° 0 mm 3 mps 735 mmHg 83%
    05:00 +15°C° 0.2 mm 2 mps 736 mmHg 84%
    06:00 +15°C° 0.2 mm 2 mps 736 mmHg 85%
    07:00 +15°C° 0.2 mm 1 mps 736 mmHg 86%
    08:00 +15°C° 0.4 mm 1 mps 736 mmHg 86%
    09:00 +15°C° 0.4 mm 1 mps 737 mmHg 86%
    10:00 +15°C° 0.4 mm 1 mps 737 mmHg 86%
    11:00 +15°C° 0.3 mm 2 mps 737 mmHg 86%
    12:00 +14°C° 0.3 mm 3 mps 737 mmHg 86%
    13:00 +14°C° 0.3 mm 4 mps 738 mmHg 86%
    14:00 +15°C° 0.1 mm 4 mps 738 mmHg 84%
    15:00 +15°C° 0.1 mm 4 mps 738 mmHg 82%
    16:00 +15°C° 0.1 mm 5 mps 738 mmHg 80%
    17:00 +14°C° 0.4 mm 4 mps 739 mmHg 82%
    18:00 +14°C° 0.4 mm 4 mps 739 mmHg 85%
    19:00 +13°C° 0.4 mm 4 mps 739 mmHg 87%
    20:00 +13°C° 2.1 mm 4 mps 740 mmHg 88%
    21:00 +12°C° 2.1 mm 5 mps 741 mmHg 88%
    22:00 +10°C° 2.1 mm 5 mps 741 mmHg 89%
    23:00 +10°C° 0.3 mm 5 mps 741 mmHg 89%
    Show more